PBO Station Position Time Series. Reference Frame : NAM14
Format Version,1.1.0
4-character ID,P678
Station name,AtomicCityID2006
Begin Date, 2006-04-23
End Date, 2019-10-07
Release Date, 2019-10-08
Reference position, 43.4489636257 North Latitude, -112.8045514207 East Longitude, 1535.34531 meters elevation,
Date, North (mm), East (mm), Vertical (mm), North Std. Deviation (mm), East Std. Deviation (mm),              Vertical Std. Deviation (mm), Quality,
2006-04-23,0.00, 0.00, 0.00, 2.14, 1.60, 7.17, repro,
2006-04-24,-1.01, 0.14, -3.05, 2.14, 1.60, 7.15, repro,
2006-04-25,-1.09, 0.51, -8.01, 2.13, 1.60, 7.15, repro,
2006-04-26,-1.15, -1.04, -3.99, 2.13, 1.61, 7.16, repro,
2006-04-27,-1.89, -0.70, -4.37, 2.20, 1.64, 7.34, repro,
2006-04-28,-1.88, -0.96, -3.48, 2.16, 1.59, 7.18, repro,
2006-04-29,-1.62, -0.92, -5.29, 2.09, 1.55, 6.96, repro,
2006-04-30,-2.05, -0.30, -6.94, 2.10, 1.54, 6.92, repro,
2006-05-01,-1.52, -1.33, -3.88, 2.08, 1.55, 6.93, repro,
2006-05-02,-2.32, -1.78, -3.19, 2.09, 1.55, 6.97, repro,
2006-05-03,-0.81, -1.11, -1.28, 2.10, 1.56, 7.01, repro,
2006-05-04,-0.51, -0.21, -5.33, 2.08, 1.55, 6.92, repro,
2006-05-05,-1.59, -0.51, -1.51, 2.10, 1.55, 6.98, repro,
2006-05-06,-1.07, -0.57, -0.69, 2.10, 1.55, 6.97, repro,
2006-05-07,-0.79, -2.87, 0.49, 2.10, 1.57, 7.05, repro,
2006-05-08,-2.69, -1.06, -2.54, 2.10, 1.55, 7.02, repro,
2006-05-09,0.08, 0.30, 0.78, 2.17, 1.58, 7.16, repro,
2006-05-10,-1.43, -0.93, -4.25, 2.08, 1.55, 6.94, repro,
2006-05-11,-0.50, -0.44, -2.50, 2.10, 1.55, 7.01, repro,
2006-05-12,-0.93, -0.06, 2.55, 2.10, 1.56, 7.03, repro,
2006-05-13,-1.17, -0.60, -1.66, 2.09, 1.55, 6.99, repro,
2006-05-14,-1.44, -0.22, -5.66, 2.09, 1.55, 6.96, repro,
2006-05-15,-0.97, 0.38, -9.94, 2.09, 1.54, 6.96, repro,
2006-05-16,-0.43, -1.30, -2.34, 2.14, 1.58, 7.22, repro,
2006-05-17,-0.50, -0.41, 1.71, 2.14, 1.59, 7.23, repro,
2006-05-18,-3.12, -1.55, 4.48, 2.14, 1.56, 7.11, repro,
2006-05-19,-2.83, -1.96, 2.70, 2.17, 1.56, 7.16, repro,
2006-05-20,-1.30, -1.35, 2.42, 2.19, 1.58, 7.25, repro,
2006-05-21,-1.62, -0.23, 6.98, 2.20, 1.57, 7.25, repro,
2006-05-22,-0.91, -1.44, 9.27, 2.21, 1.61, 7.37, repro,
2006-05-23,-0.63, -1.59, -0.30, 2.18, 1.57, 7.20, repro,
2006-05-24,-3.00, -1.24, 1.59, 2.17, 1.57, 7.18, repro,
2006-05-25,-1.55, -1.54, 2.30, 2.30, 1.62, 7.63, repro,
2006-05-26,-1.25, -0.52, 9.26, 2.24, 1.58, 7.40, repro,
2006-05-27,-1.91, -1.25, 7.24, 2.16, 1.56, 7.14, repro,
2006-05-28,-2.19, -0.68, 2.99, 2.17, 1.56, 7.16, repro,
2006-05-29,-1.55, -1.36, -1.99, 2.16, 1.57, 7.13, repro,
2006-05-30,-1.52, -1.69, -5.64, 2.23, 1.60, 7.30, repro,
2006-05-31,-1.14, -0.17, -5.13, 2.29, 1.64, 7.47, repro,
2006-06-01,-1.38, -0.73, -2.27, 2.23, 1.60, 7.27, repro,
2006-06-02,-0.49, -0.39, -3.95, 2.28, 1.62, 7.53, repro,
2006-06-03,-2.09, 2.38, 5.78, 2.21, 1.61, 7.34, repro,
2006-06-04,0.06, -0.67, -2.62, 2.28, 1.65, 7.57, repro,
2006-06-05,-0.97, -0.05, 0.37, 2.24, 1.61, 7.37, repro,
2006-06-06,-1.32, -0.95, 4.31, 2.23, 1.61, 7.39, repro,
2006-06-07,-0.97, -0.72, 3.89, 2.34, 1.69, 7.65, repro,
2006-06-08,-0.46, 1.22, -8.89, 2.16, 1.56, 7.13, repro,
2006-06-09,-3.06, -0.89, -2.56, 2.36, 1.79, 8.08, repro,
2006-06-10,-0.80, -0.48, -2.49, 2.19, 1.56, 7.18, repro,
2006-06-11,-1.58, -0.01, 6.07, 2.24, 1.60, 7.27, repro,
2006-06-12,-1.77, -0.26, 2.96, 2.28, 1.64, 7.41, repro,
2006-06-13,-1.13, -0.86, 2.39, 2.29, 1.62, 7.39, repro,
2006-06-14,0.33, -3.12, 3.58, 2.17, 1.57, 7.15, repro,
2006-06-15,-2.35, -1.89, 2.70, 2.17, 1.57, 7.16, repro,
2006-06-16,-1.58, -1.51, 2.11, 2.18, 1.58, 7.25, repro,
2006-06-17,-3.22, -1.22, 4.69, 2.18, 1.57, 7.21, repro,
2006-06-18,-1.77, -1.24, 6.41, 2.21, 1.60, 7.37, repro,
2006-06-19,-1.95, -0.97, 8.64, 2.21, 1.61, 7.43, repro,
2006-06-20,-1.12, -0.91, 6.38, 2.20, 1.62, 7.43, repro,
2006-06-21,-2.25, -1.11, 6.47, 2.24, 1.63, 7.50, repro,
2006-06-22,-1.61, -0.42, 1.88, 2.22, 1.61, 7.44, repro,
2006-06-23,-1.36, 0.03, -4.00, 2.22, 1.60, 7.38, repro,
2006-06-24,-1.75, -0.86, -0.80, 2.21, 1.61, 7.38, repro,
2006-06-25,-1.65, -1.69, -3.76, 2.20, 1.61, 7.41, repro,
2006-06-26,-0.22, -1.99, 2.31, 2.25, 1.67, 7.64, repro,
2006-06-27,0.18, -1.32, -3.55, 2.26, 1.68, 7.56, repro,
2006-06-28,-2.48, -1.15, 1.80, 2.23, 1.63, 7.49, repro,
2006-06-29,-0.95, -1.74, -1.05, 2.13, 1.59, 7.18, repro,
2006-06-30,-0.16, 0.16, -1.29, 2.15, 1.56, 7.22, repro,
2006-07-01,-1.26, -1.44, 5.16, 2.16, 1.58, 7.26, repro,
2006-07-02,-1.83, -1.71, 4.45, 2.21, 1.64, 7.48, repro,
2006-07-03,-0.08, -0.27, 3.95, 2.18, 1.59, 7.33, repro,
2006-07-04,-3.24, -3.82, 1.18, 2.19, 1.58, 7.33, repro,
2006-07-05,-1.35, -2.03, 1.33, 2.15, 1.56, 7.20, repro,
2006-07-06,-0.87, -0.71, 1.60, 2.14, 1.56, 7.19, repro,
2006-07-07,-2.28, 0.53, -3.79, 2.16, 1.58, 7.27, repro,
2006-07-08,-0.96, -1.10, -0.03, 2.17, 1.58, 7.29, repro,
2006-07-09,-0.76, -1.10, -4.11, 2.18, 1.58, 7.31, repro,
2006-07-10,-1.03, -0.95, 4.68, 2.17, 1.56, 7.27, repro,
2006-07-11,-1.56, -1.00, 11.12, 2.22, 1.61, 7.42, repro,
2006-07-12,-2.27, -0.94, 0.07, 2.16, 1.57, 7.27, repro,
2006-07-13,-2.43, 0.20, 7.64, 2.17, 1.58, 7.33, repro,
2006-07-14,-1.36, -0.59, 3.35, 2.17, 1.58, 7.33, repro,
2006-07-15,-2.27, -0.80, 2.23, 2.17, 1.57, 7.30, repro,
2006-07-16,-2.63, -1.43, 2.44, 2.17, 1.60, 7.40, repro,
2006-07-17,-2.90, 0.12, 0.13, 2.21, 1.61, 7.47, repro,
2006-07-18,-1.57, -0.13, 4.95, 2.11, 1.56, 7.07, repro,
2006-07-19,-1.69, -0.72, 2.32, 2.09, 1.56, 7.04, repro,
2006-07-20,-4.18, -0.13, 1.56, 2.10, 1.56, 7.06, repro,
2006-07-21,-1.71, 0.04, -0.57, 2.10, 1.55, 7.02, repro,
2006-07-22,-2.19, -0.29, 3.25, 2.08, 1.55, 6.96, repro,
2006-07-23,-0.39, -1.14, -1.16, 2.10, 1.56, 7.00, repro,
2006-07-24,-3.52, -0.64, 6.46, 2.16, 1.62, 7.19, repro,
2006-07-25,-1.65, 0.67, 4.99, 2.11, 1.57, 7.09, repro,
2006-07-26,-2.87, 0.79, 5.82, 2.17, 1.61, 7.28, repro,
2006-07-27,-2.43, -1.80, 3.07, 2.10, 1.56, 7.05, repro,
2006-07-28,-2.25, -0.37, 5.45, 2.09, 1.55, 6.99, repro,
2006-07-29,-1.64, 1.08, 8.31, 2.09, 1.56, 7.02, repro,
2006-07-30,-0.18, 1.09, 12.46, 2.09, 1.55, 7.02, repro,
2006-07-31,-1.98, -1.22, 9.21, 2.09, 1.55, 7.02, repro,
2006-08-01,-1.40, -0.90, 12.41, 2.10, 1.56, 7.03, repro,
2006-08-02,-2.19, -0.28, 3.16, 2.19, 1.66, 7.42, repro,
2006-08-03,-0.14, -0.80, -0.57, 2.17, 1.66, 7.35, repro,
2006-08-04,-0.31, -0.85, 5.46, 2.20, 1.61, 7.37, repro,
2006-08-05,-0.38, -0.81, 5.62, 2.19, 1.66, 7.44, repro,
2006-08-06,-2.14, 0.68, 5.01, 2.14, 1.60, 7.27, repro,
2006-08-07,-3.19, 1.83, 12.58, 2.16, 1.61, 7.32, repro,
2006-08-08,-0.20, 0.13, 5.83, 2.10, 1.56, 7.01, repro,
2006-08-09,-0.28, 0.53, 5.96, 2.14, 1.62, 7.13, repro,
2006-08-10,-1.20, -0.20, 12.42, 2.11, 1.56, 7.04, repro,
2006-08-11,-0.05, -0.22, 8.12, 2.11, 1.57, 7.09, repro,
2006-08-12,-0.57, -0.65, 7.99, 2.12, 1.57, 7.12, repro,
2006-08-13,1.34, -1.11, 6.12, 2.15, 1.61, 7.26, repro,
2006-08-14,-1.60, -0.00, 8.15, 2.12, 1.62, 7.12, repro,
2006-08-15,-0.81, -2.24, 8.93, 2.23, 1.65, 7.31, repro,
2006-08-16,-0.87, -1.13, 8.72, 2.13, 1.58, 7.14, repro,
2006-08-17,-1.45, -2.12, 7.16, 2.17, 1.62, 7.22, repro,
2006-08-18,-0.95, -0.24, 4.95, 2.17, 1.66, 7.26, repro,
2006-08-19,-0.47, -0.63, 4.36, 2.08, 1.56, 7.00, repro,
2006-08-20,-0.57, -0.54, 9.33, 2.09, 1.56, 6.98, repro,
2006-08-21,-1.90, -0.66, 7.16, 2.13, 1.58, 7.10, repro,
2006-08-22,-1.45, -1.16, 6.23, 2.13, 1.58, 7.10, repro,
2006-08-23,-0.95, -0.59, 12.16, 2.13, 1.57, 7.09, repro,
2006-08-24,-1.40, -0.50, 12.14, 2.10, 1.56, 7.03, repro,
2006-08-25,-2.47, -0.26, 12.58, 2.15, 1.61, 7.25, repro,
2006-08-26,-2.31, -0.36, 9.13, 2.19, 1.66, 7.42, repro,
2006-08-27,-2.15, -0.78, 9.36, 2.19, 1.66, 7.42, repro,
2006-08-28,-2.88, -1.27, 11.50, 2.20, 1.66, 7.48, repro,
2006-08-29,-1.42, -0.72, 7.36, 2.18, 1.66, 7.45, repro,
2006-08-30,-2.39, 1.31, 14.21, 2.19, 1.65, 7.42, repro,
2006-08-31,-1.86, -0.23, 8.19, 2.20, 1.66, 7.49, repro,
2006-09-01,-1.60, -1.17, 3.03, 2.19, 1.66, 7.43, repro,
2006-09-02,-1.26, -0.48, 2.31, 2.20, 1.66, 7.48, repro,
2006-09-03,-1.15, -0.20, 6.53, 2.19, 1.66, 7.44, repro,
2006-09-04,-1.08, 0.47, 4.22, 2.23, 1.68, 7.54, repro,
2006-09-05,-1.32, -0.25, 3.09, 2.25, 1.69, 7.61, repro,
2006-09-06,-1.32, -1.45, 4.94, 2.20, 1.66, 7.43, repro,
2006-09-07,-1.24, -1.01, 10.12, 2.22, 1.71, 7.62, repro,
2006-09-08,-1.76, -0.76, 7.30, 2.23, 1.71, 7.68, repro,
2006-09-09,-0.93, -0.21, 11.21, 2.17, 1.62, 7.28, repro,
2006-09-10,-0.47, -0.42, 15.22, 2.16, 1.61, 7.24, repro,
2006-09-11,-2.51, 0.13, 9.70, 2.17, 1.62, 7.25, repro,
2006-09-12,-1.37, -1.24, 4.91, 2.15, 1.62, 7.22, repro,
2006-09-13,-1.40, -0.37, 9.13, 2.17, 1.62, 7.25, repro,
2006-09-14,-1.97, 0.38, 18.33, 2.29, 1.69, 7.64, repro,
2006-09-15,0.00, -0.29, 14.97, 2.20, 1.59, 7.29, repro,
2006-09-16,-0.25, -1.24, 10.57, 2.13, 1.58, 7.10, repro,
2006-09-17,-1.25, -1.60, 7.92, 2.13, 1.58, 7.07, repro,
2006-09-18,-0.38, -1.15, 9.75, 2.13, 1.58, 7.09, repro,
2006-09-19,-1.55, -0.83, 8.55, 2.12, 1.57, 7.06, repro,
2006-09-20,-1.42, -0.76, 5.99, 2.13, 1.57, 7.09, repro,
2006-09-21,0.72, -1.73, 17.11, 2.20, 1.67, 7.41, repro,
2006-09-22,0.18, -0.64, 10.47, 2.22, 1.65, 7.35, repro,
2006-09-23,-0.60, -1.11, 4.46, 2.19, 1.60, 7.21, repro,
2006-09-24,-0.63, -0.86, 3.07, 2.25, 1.63, 7.31, repro,
2006-09-25,-0.56, -0.44, 3.11, 2.24, 1.64, 7.54, repro,
2006-09-26,-0.99, -1.25, 3.19, 2.17, 1.61, 7.23, repro,
2006-09-27,-0.82, -0.54, 5.36, 2.17, 1.61, 7.23, repro,
2006-09-28,-1.53, -0.95, 9.38, 2.17, 1.63, 7.25, repro,
2006-09-29,-2.58, -1.09, 12.76, 2.18, 1.62, 7.21, repro,
2006-09-30,-2.15, -0.52, 13.63, 2.17, 1.63, 7.30, repro,
2006-10-01,-1.69, -1.33, 6.67, 2.19, 1.63, 7.28, repro,
2006-10-02,-1.15, -0.16, 11.21, 2.20, 1.65, 7.24, repro,
2006-10-03,-1.41, -0.34, 2.00, 2.22, 1.69, 7.41, repro,
2006-10-04,-1.16, 0.95, 9.70, 2.25, 1.71, 7.57, repro,
2006-10-05,-2.26, -0.51, -0.19, 2.16, 1.59, 7.19, repro,
2006-10-06,-2.91, -1.48, 10.40, 2.15, 1.60, 7.19, repro,
2006-10-07,-1.08, -0.91, 1.95, 2.32, 1.74, 7.89, repro,
2006-10-08,-0.93, -0.27, 5.41, 2.20, 1.63, 7.31, repro,
2006-10-09,0.16, -1.80, 5.33, 2.19, 1.64, 7.33, repro,
2006-10-10,-0.64, -0.80, 3.91, 2.17, 1.63, 7.34, repro,
2006-10-11,-0.16, -0.50, 8.98, 2.20, 1.69, 7.50, repro,
2006-10-12,-0.35, -0.69, 11.30, 2.15, 1.59, 7.13, repro,
2006-10-13,-0.77, 0.02, 10.75, 2.12, 1.59, 7.12, repro,
2006-10-14,-0.51, -0.64, 8.42, 2.14, 1.62, 7.20, repro,
2006-10-15,-0.53, -0.67, 12.49, 2.12, 1.62, 7.16, repro,
2006-10-16,-0.53, -1.12, 23.03, 2.13, 1.63, 7.27, repro,
2006-10-17,0.25, -1.52, 16.49, 2.16, 1.66, 7.41, repro,
2006-10-18,-0.43, -0.30, 7.36, 2.18, 1.65, 7.35, repro,
2006-10-19,-0.76, -0.70, 8.10, 2.32, 1.72, 7.71, repro,
2006-10-20,1.04, -0.46, 9.79, 2.43, 1.86, 8.40, repro,
2006-10-21,-0.11, -1.83, -0.13, 2.24, 1.71, 7.57, repro,
2006-10-22,-0.54, -1.34, 1.94, 2.23, 1.70, 7.58, repro,
2006-10-23,-1.03, 0.32, 4.51, 2.29, 1.70, 7.68, repro,
2006-10-24,-1.69, -0.72, 7.69, 2.33, 1.76, 7.95, repro,
2006-10-25,-1.44, -0.71, 8.88, 2.23, 1.71, 7.52, repro,
2006-10-26,-0.19, -1.81, 3.61, 2.17, 1.68, 7.39, repro,
2006-10-27,-0.60, -0.86, -2.78, 2.18, 1.71, 7.48, repro,
2006-10-28,-0.83, 0.15, -0.38, 2.26, 1.73, 7.72, repro,
2006-10-29,-0.64, 0.10, 7.78, 2.14, 1.66, 7.31, repro,
2006-10-30,-1.08, -0.99, 8.27, 2.08, 1.59, 7.05, repro,
2006-10-31,-0.75, -0.91, 6.34, 2.14, 1.67, 7.36, repro,
2006-11-01,0.08, -1.83, 4.59, 2.32, 1.80, 7.90, repro,
2006-11-02,-0.75, 0.40, 1.87, 2.13, 1.67, 7.34, repro,
2006-11-03,-1.37, 0.54, 6.02, 2.14, 1.66, 7.34, repro,
2006-11-04,-2.45, 0.57, 4.43, 2.19, 1.66, 7.35, repro,
2006-11-05,-2.59, -0.12, 4.49, 2.18, 1.65, 7.33, repro,
2006-11-06,-1.30, -1.68, 1.32, 2.10, 1.60, 7.11, repro,
2006-11-07,-1.71, -2.08, 8.35, 2.28, 1.74, 7.64, repro,
2006-11-08,0.30, -0.68, 16.72, 2.20, 1.66, 7.35, repro,
2006-11-09,-0.14, 0.56, 9.30, 2.25, 1.72, 7.53, repro,
2006-11-10,-1.53, -1.52, 5.68, 2.20, 1.65, 7.32, repro,
2006-11-11,-1.18, -1.03, 9.96, 2.22, 1.66, 7.40, repro,
2006-11-12,-1.30, -1.40, 3.23, 2.27, 1.73, 7.60, repro,
2006-11-13,-1.25, -0.86, 14.42, 2.20, 1.66, 7.33, repro,
2006-11-14,-0.33, -1.16, 11.53, 2.09, 1.58, 7.08, repro,
2006-11-15,-0.94, -1.04, 3.99, 2.10, 1.57, 7.07, repro,
2006-11-16,-1.17, -0.00, 10.89, 2.09, 1.58, 7.08, repro,
2006-11-17,-1.43, -1.12, 1.61, 2.08, 1.58, 7.07, repro,
2006-11-18,-0.65, -0.33, 4.23, 2.09, 1.58, 7.07, repro,
2006-11-19,-0.95, -0.52, -3.62, 2.07, 1.57, 7.02, repro,
2006-11-20,-0.47, 1.42, 3.51, 2.07, 1.57, 7.01, repro,
2006-11-21,-2.61, -0.36, 9.88, 2.08, 1.57, 7.02, repro,
2006-11-22,-2.90, -1.18, 8.07, 2.08, 1.58, 7.05, repro,
2006-11-23,-1.76, -1.00, 0.94, 2.11, 1.62, 7.19, repro,
2006-11-24,-1.43, -2.01, 6.61, 2.12, 1.62, 7.22, repro,
2006-11-25,-0.58, -0.18, 8.46, 2.11, 1.60, 7.09, repro,
2006-11-26,-1.38, 0.47, 8.53, 2.11, 1.60, 7.09, repro,
2006-11-27,-1.20, -0.49, 5.76, 2.12, 1.60, 7.10, repro,
2006-11-28,-1.10, -1.24, 7.23, 2.08, 1.59, 7.05, repro,
2006-11-29,-0.21, -2.25, 4.02, 2.09, 1.59, 7.00, repro,
2006-11-30,-0.97, -0.53, -1.81, 2.09, 1.59, 7.03, repro,
2006-12-01,-1.20, -0.34, -0.89, 2.08, 1.59, 7.02, repro,
2006-12-02,-0.39, -1.47, -4.76, 2.08, 1.58, 7.01, repro,
2006-12-03,-1.33, -1.14, -5.24, 2.07, 1.58, 6.99, repro,
2006-12-04,-1.68, -0.72, -8.34, 2.14, 1.60, 7.15, repro,
2006-12-05,-2.44, -0.48, 1.60, 2.18, 1.71, 7.45, repro,
2006-12-06,-0.79, -1.26, -1.71, 2.19, 1.71, 7.48, repro,
2006-12-07,-1.84, 0.73, -3.54, 2.12, 1.63, 7.22, repro,
2006-12-08,-2.07, -0.05, 1.15, 2.12, 1.63, 7.18, repro,
2006-12-09,-2.13, 0.15, 6.11, 2.15, 1.64, 7.26, repro,
2006-12-10,-2.41, -0.04, 7.46, 2.17, 1.65, 7.32, repro,
2006-12-11,-1.18, -0.78, 3.31, 2.11, 1.60, 7.11, repro,
2006-12-12,-2.36, 0.23, 3.94, 2.15, 1.64, 7.26, repro,
2006-12-13,-3.13, 0.12, 8.28, 2.07, 1.58, 7.05, repro,
2006-12-14,-1.29, -0.49, 8.51, 2.11, 1.64, 7.20, repro,
2006-12-15,-2.08, -0.40, 6.21, 2.19, 1.69, 7.49, repro,
2006-12-16,-1.41, -1.28, 7.02, 2.21, 1.72, 7.50, repro,
2006-12-17,-0.65, -1.78, 7.53, 2.23, 1.70, 7.73, repro,
2006-12-18,-0.73, -1.06, -2.33, 2.42, 1.80, 8.35, repro,
2006-12-19,-1.47, -1.00, 2.49, 2.21, 1.72, 7.62, repro,
2006-12-20,-2.40, -1.27, 2.55, 2.25, 1.70, 7.50, repro,
2006-12-21,-2.16, -0.52, -0.45, 2.14, 1.69, 7.40, repro,
2006-12-22,-2.36, -1.81, 1.76, 2.48, 2.00, 8.70, repro,
2006-12-23,-1.75, -0.82, -0.45, 2.19, 1.66, 7.51, repro,
2006-12-24,-1.54, -1.00, -2.61, 2.09, 1.59, 7.09, repro,
2006-12-25,-2.22, -0.94, -6.77, 2.17, 1.68, 7.36, repro,
2006-12-26,-2.31, -1.13, 0.77, 2.27, 1.69, 7.66, repro,
2006-12-27,-0.00, 1.62, 4.73, 2.17, 1.69, 7.52, repro,
2006-12-28,-0.26, -2.05, 3.17, 2.61, 2.06, 9.47, repro,
2006-12-29,-0.46, -1.07, -10.17, 2.31, 1.83, 8.13, repro,
2006-12-30,-2.86, -1.41, -3.80, 2.33, 1.81, 8.10, repro,
2006-12-31,-1.99, -0.71, -4.88, 2.33, 1.80, 8.19, repro,
2007-01-01,-1.62, -1.86, -0.94, 2.43, 1.88, 8.52, repro,
2007-01-02,-2.96, -0.26, -0.62, 2.48, 1.94, 8.61, repro,
2007-01-03,-0.85, -0.24, 9.32, 2.18, 1.70, 7.48, repro,
2007-01-04,0.05, 0.21, 11.62, 2.07, 1.62, 7.13, repro,
2007-01-05,-0.04, -1.38, 0.30, 2.10, 1.67, 7.27, repro,
2007-01-06,-2.10, -1.81, 3.00, 2.11, 1.67, 7.27, repro,
2007-01-07,-0.59, -2.11, -4.35, 2.13, 1.63, 7.18, repro,
2007-01-08,-1.91, -1.03, -1.89, 2.16, 1.66, 7.26, repro,
2007-01-09,-1.44, -0.81, -5.82, 2.11, 1.61, 7.04, repro,
2007-01-10,-2.74, 0.24, 2.81, 2.10, 1.61, 7.03, repro,
2007-01-11,-0.94, -0.65, -0.58, 2.15, 1.62, 7.14, repro,
2007-01-12,0.18, -1.95, -4.48, 2.11, 1.59, 7.08, repro,
2007-01-13,-0.87, -0.66, -7.17, 2.09, 1.60, 7.03, repro,
2007-01-14,-0.86, -0.62, -9.60, 2.03, 1.55, 6.81, repro,
2007-01-15,-0.44, -1.58, -13.87, 2.04, 1.56, 6.88, repro,
2007-01-16,-1.57, -0.32, -11.52, 2.08, 1.57, 6.95, repro,
2007-01-17,-1.61, -0.83, -8.00, 2.10, 1.61, 7.03, repro,
2007-01-18,-1.55, -1.10, -10.86, 2.11, 1.61, 7.10, repro,
2007-01-19,-1.47, -0.34, -8.95, 2.08, 1.59, 7.06, repro,
2007-01-20,-1.50, -0.23, -4.02, 2.09, 1.58, 7.05, repro,
2007-01-21,-0.50, -0.70, -5.01, 2.05, 1.55, 6.84, repro,
2007-01-22,-1.14, -1.11, -6.83, 2.06, 1.56, 6.88, repro,
2007-01-23,-1.35, -1.63, -7.82, 2.04, 1.56, 6.86, repro,
2007-01-24,-1.61, -0.09, -9.53, 2.04, 1.56, 6.86, repro,
2007-01-25,-1.12, 0.12, -12.86, 2.09, 1.59, 7.00, repro,
2007-01-26,-0.62, -0.47, -5.89, 2.05, 1.55, 6.84, repro,
2007-01-27,-0.68, -0.61, -5.34, 2.06, 1.56, 6.90, repro,
2007-01-28,-0.95, -0.66, -8.22, 2.06, 1.56, 6.87, repro,
2007-01-29,-0.81, 0.07, -7.15, 2.05, 1.57, 6.90, repro,
2007-01-30,-0.92, -0.09, -4.41, 2.04, 1.56, 6.84, repro,
2007-01-31,-0.18, -0.54, -1.59, 2.03, 1.55, 6.78, repro,
2007-02-01,-1.00, -0.48, -0.54, 2.07, 1.60, 7.05, repro,
2007-02-02,-1.14, -1.05, -2.85, 2.11, 1.57, 7.05, repro,
2007-02-03,-1.46, -1.33, -0.39, 2.10, 1.57, 7.04, repro,
2007-02-04,0.42, -0.91, -5.10, 2.05, 1.57, 6.92, repro,
2007-02-05,-0.54, -0.14, -10.87, 2.05, 1.56, 6.90, repro,
2007-02-06,-0.99, 0.14, -8.46, 2.11, 1.57, 7.01, repro,
2007-02-07,-0.87, -0.34, -5.18, 2.06, 1.57, 6.91, repro,
2007-02-08,-1.18, 0.06, -8.05, 2.10, 1.63, 7.09, repro,
2007-02-09,-1.06, -0.09, -3.55, 2.14, 1.63, 7.23, repro,
2007-02-10,-0.80, 0.05, -6.15, 2.05, 1.56, 6.89, repro,
2007-02-11,-1.35, -0.85, 1.82, 2.06, 1.55, 6.90, repro,
2007-02-12,-0.45, -0.65, -5.86, 2.05, 1.55, 6.87, repro,
2007-02-13,-1.06, 0.04, -5.81, 2.06, 1.57, 6.93, repro,
2007-02-14,-1.61, -0.07, -3.17, 2.05, 1.55, 6.89, repro,
2007-02-15,-1.06, -0.39, -3.39, 2.06, 1.56, 6.91, repro,
2007-02-16,-0.97, -2.46, -4.26, 2.13, 1.57, 7.09, repro,
2007-02-17,-2.20, -1.76, -6.02, 2.09, 1.60, 7.06, repro,
2007-02-18,-1.04, -0.02, -0.50, 2.06, 1.56, 6.91, repro,
2007-02-19,-2.22, -0.16, 7.60, 2.05, 1.55, 6.85, repro,
2007-02-20,-2.88, -0.93, 9.13, 2.05, 1.55, 6.88, repro,
2007-02-21,0.88, -0.29, 6.59, 2.05, 1.56, 6.93, repro,
2007-02-22,-0.18, 0.09, -2.49, 2.06, 1.55, 6.90, repro,
2007-02-23,-0.55, -0.53, 5.67, 2.17, 1.67, 7.31, repro,
2007-02-24,-0.43, -0.98, -0.05, 2.06, 1.54, 6.85, repro,
2007-02-25,-0.88, -0.32, 2.65, 2.05, 1.55, 6.86, repro,
2007-02-26,-0.14, -0.64, 5.11, 2.05, 1.55, 6.89, repro,
2007-02-27,-1.16, -0.13, 5.81, 2.06, 1.56, 6.91, repro,
2007-02-28,-1.34, -0.46, 8.02, 2.06, 1.56, 6.92, repro,
2007-03-01,-2.69, -0.33, 3.26, 2.11, 1.62, 7.12, repro,
2007-03-02,-0.64, -1.36, -1.99, 2.11, 1.61, 7.14, repro,
2007-03-03,-0.61, -0.94, -8.59, 2.08, 1.58, 7.02, repro,
2007-03-04,-1.04, -0.74, -9.17, 2.10, 1.58, 7.06, repro,
2007-03-05,-0.72, 0.25, -8.56, 2.10, 1.59, 7.09, repro,
2007-03-06,-0.55, -0.50, -4.17, 2.16, 1.64, 7.25, repro,
2007-03-07,-1.41, -0.41, -4.06, 2.10, 1.58, 7.05, repro,
2007-03-08,-0.91, 0.03, 3.11, 2.09, 1.57, 6.99, repro,
2007-03-09,-1.00, -0.06, -0.44, 2.11, 1.58, 7.06, repro,
2007-03-10,-1.06, -0.89, -3.92, 2.13, 1.62, 7.18, repro,
2007-03-11,-1.26, -1.06, -9.64, 2.11, 1.59, 7.07, repro,
2007-03-12,-0.81, -0.08, -4.65, 2.11, 1.59, 7.08, repro,
2007-03-13,-2.67, -0.46, -0.83, 2.07, 1.54, 6.87, repro,
2007-03-14,0.21, -0.42, -8.03, 2.07, 1.54, 6.86, repro,
2007-03-15,-0.73, -0.95, -7.94, 2.09, 1.57, 7.00, repro,
2007-03-16,-0.71, -0.83, -2.10, 2.09, 1.58, 7.01, repro,
2007-03-17,-0.70, 0.26, -1.12, 2.06, 1.55, 6.89, repro,
2007-03-18,-2.06, -1.11, 2.03, 2.11, 1.58, 7.04, repro,
2007-03-19,-2.62, -0.27, 1.16, 2.07, 1.54, 6.87, repro,
2007-03-20,-5.08, -0.42, 4.40, 2.17, 1.57, 6.99, repro,
2007-03-21,-1.48, -0.78, 4.53, 2.19, 1.60, 7.15, repro,
2007-03-22,-1.93, -1.57, 2.08, 2.10, 1.58, 7.05, repro,
2007-03-23,-1.68, -1.59, 2.15, 2.10, 1.58, 7.05, repro,
2007-03-24,-1.14, -1.29, -1.62, 2.10, 1.57, 7.00, repro,
2007-03-25,-2.52, -0.55, 7.55, 2.08, 1.54, 6.90, repro,
2007-03-26,-2.12, -1.31, -1.43, 2.09, 1.54, 6.89, repro,
2007-03-27,-1.43, -1.11, 3.42, 2.13, 1.55, 7.01, repro,
2007-03-28,-0.19, -1.65, -1.11, 2.16, 1.60, 7.23, repro,
2007-03-29,-0.28, -1.61, -5.69, 2.09, 1.57, 7.02, repro,
2007-03-30,-1.01, -0.34, -3.18, 2.07, 1.54, 6.90, repro,
2007-03-31,-1.55, -1.18, 1.43, 2.09, 1.54, 6.91, repro,
2007-04-01,-1.32, -0.04, 2.30, 2.10, 1.57, 7.05, repro,
2007-04-02,0.19, -0.69, -1.50, 2.07, 1.55, 6.92, repro,
2007-04-03,-0.89, -1.04, -5.25, 2.14, 1.62, 7.24, repro,
2007-04-04,-1.50, -0.65, -7.02, 2.12, 1.59, 7.14, repro,
2007-04-05,-0.25, -0.30, -2.99, 2.19, 1.61, 7.25, repro,
2007-04-06,-0.71, -0.51, -4.45, 2.19, 1.61, 7.31, repro,
2007-04-07,-0.32, -0.56, 3.92, 2.14, 1.58, 7.07, repro,
2007-04-08,-1.30, -0.24, 1.27, 2.07, 1.54, 6.90, repro,
2007-04-09,-0.43, 0.17, 2.15, 2.08, 1.53, 6.86, repro,
2007-04-10,-1.04, -1.07, 5.33, 2.12, 1.57, 7.07, repro,
2007-04-11,-1.80, -1.91, 9.41, 2.10, 1.54, 6.95, repro,
2007-04-12,-1.65, -0.98, 7.54, 2.09, 1.55, 6.96, repro,
2007-04-13,-0.92, -0.60, -2.68, 2.08, 1.54, 6.91, repro,
2007-04-14,-1.05, -0.76, 1.14, 2.10, 1.55, 6.91, repro,
2007-04-15,-1.67, -0.48, 3.13, 2.09, 1.54, 6.93, repro,
2007-04-16,-1.35, -0.46, 2.65, 2.10, 1.54, 6.94, repro,
2007-04-17,-1.62, -0.72, 0.85, 2.09, 1.54, 6.95, repro,
2007-04-18,-2.64, -0.01, 0.35, 2.10, 1.56, 7.00, repro,
2007-04-19,-1.62, -0.94, -1.41, 2.09, 1.54, 6.93, repro,
2007-04-20,-1.75, -0.83, 0.19, 2.09, 1.53, 6.90, repro,
2007-04-21,-1.58, -0.55, 3.07, 2.10, 1.53, 6.90, repro,
2007-04-22,-1.28, -0.99, 3.64, 2.08, 1.54, 6.90, repro,
2007-04-23,-2.24, -1.17, 3.18, 2.11, 1.58, 7.05, repro,
2007-04-24,-1.51, -0.76, -6.05, 2.13, 1.58, 7.09, repro,
2007-04-25,-1.47, -0.66, -0.26, 2.12, 1.57, 7.01, repro,
2007-04-26,-1.29, 0.24, -3.88, 2.09, 1.53, 6.88, repro,
2007-04-27,-0.96, -0.71, -0.16, 2.10, 1.53, 6.88, repro,
2007-04-28,-1.86, -0.95, -2.65, 2.10, 1.54, 6.96, repro,
2007-04-29,-1.61, -0.09, -2.13, 2.11, 1.55, 6.99, repro,
2007-04-30,-2.14, 0.57, -4.40, 2.11, 1.55, 6.97, repro,
2007-05-01,-1.40, -1.23, 0.78, 2.09, 1.53, 6.86, repro,
2007-05-02,-0.67, 0.46, 0.81, 2.16, 1.56, 7.06, repro,
2007-05-03,-2.78, -0.64, 1.89, 2.17, 1.55, 7.08, repro,
2007-05-04,-1.03, -1.26, 5.46, 2.11, 1.54, 6.98, repro,
2007-05-05,-1.16, -0.88, 0.14, 2.15, 1.58, 7.13, repro,
2007-05-06,-1.15, -1.13, -2.75, 2.10, 1.53, 6.91, repro,
2007-05-07,-1.16, -0.33, -5.55, 2.10, 1.52, 6.90, repro,
2007-05-08,-2.32, -0.47, 0.78, 2.10, 1.53, 6.91, repro,
2007-05-09,-1.94, -0.08, -0.93, 2.12, 1.54, 6.97, repro,
2007-05-10,-1.52, -0.63, -2.24, 2.20, 1.61, 7.33, repro,
2007-05-11,-1.73, -1.11, -0.56, 2.22, 1.62, 7.33, repro,
2007-05-12,-1.07, -1.54, 2.64, 2.09, 1.53, 6.92, repro,
2007-05-13,-0.70, -0.06, -2.01, 2.15, 1.55, 7.04, repro,
2007-05-14,-0.40, -0.50, -2.66, 2.14, 1.56, 7.02, repro,
2007-05-15,-1.71, -1.64, -5.11, 2.12, 1.55, 7.00, repro,
2007-05-16,-1.68, -1.02, -1.59, 2.11, 1.54, 6.94, repro,
2007-05-17,-0.70, -1.24, -1.86, 2.12, 1.58, 7.04, repro,
2007-05-18,-0.28, -0.21, -2.84, 2.16, 1.60, 7.18, repro,
2007-05-19,-1.18, -0.11, -1.43, 2.16, 1.56, 7.03, repro,
2007-05-20,0.15, -1.01, 3.62, 2.18, 1.57, 7.10, repro,
2007-05-21,-1.21, -0.92, 3.39, 2.11, 1.57, 6.98, repro,
2007-05-22,-2.45, -2.17, 7.09, 2.11, 1.55, 6.94, repro,
2007-05-23,-0.82, -1.10, -1.53, 2.10, 1.53, 6.83, repro,
2007-05-24,-0.81, -0.55, -3.11, 2.14, 1.56, 7.02, repro,
2007-05-25,-1.58, 0.59, 0.61, 2.13, 1.54, 6.90, repro,
2007-05-26,-1.25, -0.11, -5.00, 2.13, 1.56, 6.97, repro,
2007-05-27,-2.11, -1.96, 4.89, 2.11, 1.56, 6.95, repro,
2007-05-28,-1.25, -0.93, 3.13, 2.09, 1.54, 6.82, repro,
2007-05-29,-0.81, -0.40, -2.53, 2.10, 1.53, 6.84, repro,
2007-05-30,-0.96, -0.67, -0.30, 2.17, 1.56, 6.99, repro,
2007-05-31,-0.63, -1.40, -4.43, 2.16, 1.58, 7.06, repro,
2007-06-01,-2.34, -1.00, -1.66, 2.11, 1.55, 6.89, repro,
2007-06-02,-0.54, -1.61, 4.32, 2.08, 1.55, 6.85, repro,
2007-06-03,-0.36, -0.83, 4.24, 2.08, 1.54, 6.83, repro,
2007-06-04,-1.15, -0.57, 1.15, 2.09, 1.53, 6.87, repro,
2007-06-05,-1.70, -0.59, 7.24, 2.16, 1.57, 7.10, repro,
2007-06-06,-1.59, -1.52, 9.75, 2.11, 1.55, 6.92, repro,
2007-06-07,-1.85, -2.11, 2.92, 2.08, 1.54, 6.85, repro,
2007-06-08,-1.51, -1.43, 1.47, 2.09, 1.54, 6.84, repro,
2007-06-09,-1.91, -0.21, -2.62, 2.10, 1.56, 6.96, repro,
2007-06-10,-1.26, -0.17, -0.22, 2.10, 1.55, 6.93, repro,
2007-06-11,-2.04, -0.44, -2.08, 2.12, 1.58, 7.06, repro,
2007-06-12,-1.92, -1.07, 6.28, 2.12, 1.58, 7.01, repro,
2007-06-13,-1.18, -1.23, -2.48, 2.13, 1.60, 7.00, repro,
2007-06-14,-1.56, -2.94, -3.15, 2.12, 1.59, 6.99, repro,